Location: Glion
(46.4330°N, 6.9246°E)
Time: 05:20:27
(UTC+00:00)

GP-B - Pass Details

Date: 03 March 2021
Orbit: 631 x 635 km, 89.8° (Epoch: 22 April)

Event Time Altitude Azimuth Distance (km) Brightness Sun altitude
Rises 19:21:33 0° 194° (SSW) 2,916 6.5 -21.4°
Reaches altitude 10° 19:23:51 10° 201° (SSW) 2,013 5.8 -21.8°
Maximum altitude 19:28:04 43° 273° (W) 902 4.3 -22.5°
Drops below altitude 10° 19:32:20 10° 345° (NNW) 2,031 6.1 -23.2°
Sets 19:34:40 0° 353° (N) 2,945 6.8 -23.6°
